User: anonymous
Location: Unspecified
(0.0000°N, 0.0000°E)
Time: 15:10:02
(UTC+00:00)
Language:

GSAT 7 - Orbit

View from above orbital plane
View from above orbital plane
View from above satellite
View from above satellite

Ground track
Ground track

The orbit data is extracted from the following two-line orbital elements,

1 39234U 13044B   14210.85271549 -.00000086  00000-0  00000+0 0  2786
2 39234 000.1199 264.7981 0006730 358.0090 065.5677 01.00272156  3385
Epoch (UTC): 29 July 2014 20:27:54
Eccentricity: 0.0006730
inclination: 0.1199°
perigee height: 35758 km
apogee height: 35814 km
right ascension of ascending node: 264.7981°
argument of perigee: 358.0090°
revolutions per day: 1.00272156
mean anomaly at epoch: 65.5677°
orbit number at epoch: 338

The dashed part of the orbit path shows where the satellite is in the earth's shadow,  

DLR